Weather History for Norfolk, NE

Change the Weather History Date:

Wednesday, November 3, 2010

  Actual Average Record
Temperature  
Mean Temperature 52 °F 43 °F  
Max Temperature 63 °F 55 °F 81 °F (1909)
Min Temperature 41 °F 32 °F -2 °F (1991)
Degree Days  
Heating Degree Days 13 22  
Month to date heating degree days 51 64  
Since 1 July heating degree days 480 649  
Cooling Degree Days 0 0  
Month to date cooling degree days 0 0  
Year to date cooling degree days 985 915  
Growing Degree Days 2 (Base 50)    
Moisture  
Dew Point 30 °F    
Average Humidity 53    
Maximum Humidity 82    
Minimum Humidity 23    
Precipitation  
Precipitation 0.00 in 0.05 in 0.83 in (2003)
Month to date precipitation 0.00 0.15  
Year to date precipitation 28.53 25.44  
Snow  
Snow 0.00 in 0.10 in - ()
Month to date snowfall 0.0 0.3  
Since 1 July snowfall T 1.1  
Snow Depth 0.00 in    
Sea Level Pressure  
Sea Level Pressure 30.26 in    
Wind  
Wind Speed 17 mph (NW)    
Max Wind Speed 38 mph    
Max Gust Speed 47 mph    
Visibility 10 miles    
Events      
T = Trace of Precipitation, MM = Missing Value Source: NWS Daily Summary

Daily Weather History Graph

Daily Weather History Graph

Search for Another Location

Airport:

Trip Planner

Search our weather history database for the weather conditions in past years. The results will help you decide how hot, cold, wet, or windy it might be!

Date:

Astronomy

Nov. 03, 2010 Rise Set
Actual Time 8:04 AM CDT 6:21 PM CDT
Civil Twilight 7:35 AM CDT 6:50 PM CDT
Nautical Twilight 7:02 AM CDT 7:23 PM CDT
Astronomical Twilight 6:29 AM CDT 7:55 PM CDT
Moon 5:03 AM CDT (11/3) 4:33 PM CDT (11/3)
Length of Visible Light 11h 14m
Length of Day
10h 16m
Waning Crescent, 9% of the Moon is Illuminated
Nov 3
Waning Crescent
Nov 5
New
Nov 13
First Quarter
Nov 21
Full
Nov 28
Last Quarter

Hourly Weather History & Observations

Time (CDT) Temp. Windchill Dew Point Humidity Pressure Visibility Wind Dir Wind Speed Gust Speed Precip Events Conditions
12:56 AM 46.0 °F 44.8 °F 30.9 °F 56% 30.20 in 10.0 mi West 3.5 mph - N/A   Clear
1:56 AM 44.1 °F 40.8 °F 34.0 °F 68% 30.20 in 10.0 mi West 5.8 mph - N/A   Clear
2:56 AM 44.1 °F 41.5 °F 36.0 °F 73% 30.19 in 10.0 mi West 4.6 mph - N/A   Clear
3:56 AM 42.1 °F 37.7 °F 36.0 °F 79% 30.20 in 10.0 mi West 6.9 mph - N/A   Clear
4:56 AM 43.0 °F 38.2 °F 37.0 °F 80% 30.21 in 10.0 mi West 8.1 mph - N/A   Partly Cloudy
5:56 AM 46.0 °F 41.9 °F 37.9 °F 73% 30.22 in 10.0 mi West 8.1 mph - N/A   Clear
6:56 AM 46.0 °F 41.9 °F 37.9 °F 73% 30.25 in 10.0 mi NW 8.1 mph - N/A   Clear
7:56 AM 45.0 °F 40.6 °F 37.9 °F 76% 30.28 in 10.0 mi WNW 8.1 mph - N/A   Clear
8:56 AM 48.0 °F - 37.9 °F 68% 30.31 in 10.0 mi NNW 15.0 mph 21.9 mph N/A   Clear
9:56 AM 50.0 °F - 37.0 °F 61% 30.33 in 10.0 mi NNW 18.4 mph 26.5 mph N/A   Clear
10:56 AM 54.0 °F - 34.0 °F 47% 30.34 in 10.0 mi NNW 18.4 mph 25.3 mph N/A   Clear
11:56 AM 57.0 °F - 30.0 °F 36% 30.33 in 10.0 mi NNW 18.4 mph 28.8 mph N/A   Clear
12:56 PM 60.1 °F - 28.0 °F 30% 30.32 in 10.0 mi NNW 23.0 mph 26.5 mph N/A   Clear
1:56 PM 62.1 °F - 24.1 °F 23% 30.27 in 10.0 mi NNW 25.3 mph 36.8 mph N/A   Clear
2:56 PM 62.1 °F - 26.1 °F 25% 30.25 in 10.0 mi NW 25.3 mph 33.4 mph N/A   Clear
3:56 PM 61.0 °F - 24.1 °F 24% 30.23 in 10.0 mi NW 24.2 mph 42.6 mph N/A   Scattered Clouds
4:56 PM 60.1 °F - 27.0 °F 28% 30.22 in 10.0 mi NNW 29.9 mph 43.7 mph N/A   Scattered Clouds
5:56 PM 57.9 °F - 21.9 °F 25% 30.23 in 10.0 mi NNW 31.1 mph 40.3 mph N/A   Clear
6:56 PM 54.0 °F - 23.0 °F 30% 30.26 in 10.0 mi NNW 18.4 mph - N/A   Clear
7:56 PM 52.0 °F - 24.1 °F 34% 30.28 in 10.0 mi NNW 19.6 mph 28.8 mph N/A   Clear
8:56 PM 48.9 °F - 25.0 °F 39% 30.29 in 10.0 mi NNW 17.3 mph - N/A   Clear
9:56 PM 48.0 °F - 26.1 °F 42% 30.30 in 10.0 mi NNW 18.4 mph - N/A   Clear
10:56 PM 46.0 °F 39.9 °F 27.0 °F 47% 30.32 in 10.0 mi NW 13.8 mph 25.3 mph N/A   Clear
11:56 PM 45.0 °F 37.6 °F 27.0 °F 49% 30.32 in 10.0 mi NNW 17.3 mph 25.3 mph N/A   Clear